Showing default

IRIDIUM 157, 43251

Orbit data source: Space-Track

IRIDIUM 157, 43251 is a payload satellite owned by Iridium (US) in LEO that was launched on Fri, 30 Mar 2018 UTC via an FALCON 9 launch vehicle from the Air Force Western Test Range (AFWTR). Payload-class satellites include a variety of spacecraft equipped with specific instruments for various scientific and technological missions. These include communications satellites like Starlink; space stations such as the ISS; scientific satellites like the Hubble; Earth observation satellites from companies like Planet Labs, Umbra, and HawkEye 360; GPS; miniature CubeSats for education and research; and military/defense satellites.

Loading next visibility...
Identifier
43251, 2018-030C
Orbit
LEO
Country
Flag of USUS
Related business
Manufacturer
OATK SSG Gilbert
Mission
Operational Commercial Communications
Bus & Motor
ELITEBUS, Unknown motor
Mass
860 kg wet, 700 kg dry
Launch date (UTC)
2018-03-30 (8 years ago)
Launch vehicle
FALCON 9
Launch site
Air Force Western Test Range (AFWTR)
Object type
Payload
Rocket body
Debris
Shape & HBR
Trap Box + 2 Pan, 4.8 m
Radar Cross Section
10.154 m², Large (>1 m²)

Expand to show TLE details & history
Last TLE update: 10 hours ago

TLE from 10 hours ago
0 IRIDIUM 157
1 43251U 18030C   26256.02475988 -.00000036  00000-0 -19844-4 0  9992
2 43251  86.3910 253.6782 0002175  88.9302 271.2143 14.34216592442728
Epoch: 2026-09-13T00:35Z
TLE epoch observation values (Epoch: 2026-09-13T00:35:39.253Z)
Latitude
-0.00003°
Longitude
-107.2607°
Altitude
780.689 km
Speed
7.464 km/s
True Right ascension
16h 54m 42s
True Declination
0° 00' 00"
Sunlit
Object was in daylight at epoch
Visualization orbit readout
Latitude
Unknown
Longitude
Unknown
Altitude
Unknown
Speed
Unknown
Apparent Right ascension
Unknown
Apparent Declination
Unknown
Sunlit
N/A
Visualization observer readout
Local Sidereal Time
03:33:01
Azimuth
Unknown
Elevation
Unknown
Doppler factor
Unknown
Orbital elements
Apogee altitude
776.191 km
Perigee altitude
773.08 km
Semi-major axis
7,152.773 km
Eccentricity
0.00022
Inclination
86.391°
RAAN
253.6782°
Arg. of periapsis
88.9302°
True anomaly
271.18938°
Mean anomaly
271.2143°
Eccentric anomaly
271.20184°
Mean motion
3.58783 °/min
Orbital period
100.34 mins
BSTAR
-0.000019844
Loading maneuver chart data...
Computing Atmospheric mass density...
Loading historical data...
Loading historical data...
Loading historical data...
Loading historical data...
Loading historical data...
Loading historical data...
Loading historical data...

Documentation

Showing up to 5 results
|